weather.gov     
National Weather Service

Terminal Aerodrome Forecast
NWS Homepage
This page is being discontinued on March 12, 2014.
The same data is available at this site. Please update your bookmarks.
Thank you, and we apologize for the inconvenience.
Please send an email to SR-SRH.Webmaster@noaa.gov with any concerns.


Current Version
Previous Version:    01  02  03  04  05  06  07  08  09  10  11  12  13  14  15  16  17  18  19  20  21  22  23  24  25  26  27  28  29  30  
   31  32  33  34  35  36  37  38  39  
[Printable]
420
FTUS44 KHGX 281120
TAFGLS
TAF
KGLS 281120Z 2812/2912 10010KT P6SM VCTS SCT025CB BKN080
      TEMPO 2812/2815 VRB15G25KT 2SM TSRA BKN020CB
     FM281500 12010KT P6SM VCSH SCT030 BKN120
     FM281900 13012KT P6SM FEW035 BKN250
     FM290800 14008KT P6SM VCSH SCT025 SCT120=




420
FTUS44 KHGX 281120
TAFGLS
TAF
KGLS 281120Z 2812/2912 10010KT P6SM VCTS SCT025CB BKN080
      TEMPO 2812/2815 VRB15G25KT 2SM TSRA BKN020CB
     FM281500 12010KT P6SM VCSH SCT030 BKN120
     FM281900 13012KT P6SM FEW035 BKN250
     FM290800 14008KT P6SM VCSH SCT025 SCT120=


U.S. Dept. of Commerce
NOAA National Weather Service
1325 East West Highway
Silver Spring, MD 20910
E-mail: w-nws.webmaster@noaa.gov
Page last modified: May 16, 2007
NATIONAL WEATHER SERVICE: for Safety, for Work, for Fun - FOR LIFE